Location: Leuk
(46.3174°N, 7.6341°E)
Time: 20:44:14
(UTC+00:00)

Cosmos 1606 - Pass Details

Date: 09 March 2021
Orbit: 502 x 527 km, 82.5° (Epoch: 20 April)

Event Time Altitude Azimuth Distance (km) Brightness Sun altitude
Exits shadow 03:12:16 36° 69° (ENE) 845 4.2 -28.0°
Drops below altitude 10° 03:15:20 10° 24° (NNE) 1,782 6.0 -27.5°
Sets 03:17:34 0° 16° (NNE) 2,674 6.9 -27.2°
